Regional Weather Roundup
Issued by NWS

Home | Current Version | Previous Version | Graphics & Text | Print | Product List | Glossary On
Versions: 1 2 3 4 5 6 7 8 9 10 11 12 13 14 15 16 17 18 19 20 21 22 23 24 25 26 27 28
000
ASUS45 KBOI 230010
RWRID

IDAHO REGIONAL WEATHER ROUNDUP
NATIONAL WEATHER SERVICE BOISE ID
600 PM MDT TUE AUG 22 2017

NOTE: "FAIR" INDICATES FEW OR NO CLOUDS BELOW 12000 FEET
WITH NO SIGNIFICANT WEATHER AND/OR OBSTRUCTIONS TO VISIBILITY

IDZ012-014-230100-
SOUTHWEST IDAHO


CITY           SKY/WX    TMP DP  RH WIND       PRES   REMARKS
BOISE          SUNNY     92  43  18 NW6       30.00F
CALDWELL       SUNNY     91  50  24 W5        29.98F
MOUNTAIN HOME  SUNNY     96  35  12 NW10      29.99F HX  91
$$

IDZ016-017-230100-
SOUTHCENTRAL IDAHO


CITY           SKY/WX    TMP DP  RH WIND       PRES   REMARKS
BURLEY         MOSUNNY   89  39  17 CALM      30.07F
JEROME         MOSUNNY   87  42  20 W5        30.08F
TWIN FALLS     PTSUNNY   85  41  21 CALM      30.09F
$$

IDZ019>023-230100-
SOUTHEAST IDAHO


CITY           SKY/WX    TMP DP  RH WIND       PRES   REMARKS
IDAHO FALLS    SUNNY     88  34  14 S10       30.13F
POCATELLO      MOSUNNY   91  32  12 W10       30.11F
REXBURG        SUNNY     87  30  13 S7        30.14F
$$

IDZ006-010-011-018-031-032-230100-
CENTRAL IDAHO MOUNTAINS


CITY           SKY/WX    TMP DP  RH WIND       PRES   REMARKS
MCCALL         SUNNY     86  38  18 W8        30.16F
HAILEY         SUNNY     84  37  18 S6        30.16F
STANLEY          N/A     84  28  13 NW9       30.25S
SALMON         SUNNY     87  48  25 NW5       30.05F
CHALLIS        SUNNY     90  28  11 N3        30.10F
$$

IDZ002-004-006-007-026-230100-
NORTHERN IDAHO


CITY           SKY/WX    TMP DP  RH WIND       PRES   REMARKS
LEWISTON       SUNNY     96  38  13 CALM      29.91F HX  91
LOWELL           N/A     86  54  33 CALM      29.92F
COEUR D`ALENE  SUNNY     89  46  22 CALM      29.98F
MULLAN PASS    SUNNY     76  35  22 MISG      30.24S
$$




USA.gov is the U.S. government's official web portal to all federal, state and local government web resources and services.